Probability
0 0 0 0 0 0 0 0 0 0 0 0 0 0 0 0 0 0 0 0 0 0 0 0 0 0 0 0 0 0 0 0 0 0 0 0 0 0 0 0 0 0 0
0 0 0 0 0 0 0 0 0 0 0 0 0 0 0 0 0 0 0 0 0 0 0 0 0 0 0 0 0 0 0 0 0 0 0 0 0 0 0 0 0 0 0
0 0 0 0 0 0 0 0 0 0 0 0 0 0 0 0 0 0 0 0 0 0 0 0 0 0 0 0 0 0 0 0 0 0 0 0 0 0 0 0 0 0 0
0 0 0 0 0 0 0 0 0 0 0 0 0 0 0 0 0 0 0 0 0 0 0 0 0 0 0 0 0 0 0 0 0 0 0 0 0 0 0 0 0 0 0
0 0 0 0 0 0 0 0 0 0 0 0 0 0 0 0 0 0 0 0 0 0 0 0 0 0 0 0 0 0 0 0 0 0 0 0 0 0 0 0 0 0 0
0 0 0 0 0 0 0 0 0 0 0 0 0 0 0 0 0 0 0 0 0 0 0 0 0 0 0 0 0 0 0 0 0 0 0 0 0 0 0 0 0 0 0
0 0 0 0 0 0 0 0 0 0 0 0 0 0 0 0 0 0 0 0 0 0 0 0 0 0 0 0 0 0 0 0 0 0 0 0 0 0 0 0 0 0 0
0 0 0 0 0 0 0 0 0 0 0 0 0 0 0 0 0 0 0 0 0 0 0 0 0 0 0 0 0 0 0 0 0 0 0 0 0 0 0 0 0 0 0
0 0 0 0 0 0 0 0 0 0 0 0 0 0 0 0 0 0 0 0 0 0 0 0 0 0 0 0 0 0 0 0 0 0 0 0 0 0 0 0 0 0 0
0 0 0 0 0 0 0 0 0 0 0 0 0 0 0 0 0 0 0 0 0 0 0 0 0 0 0 0 0 0 0 0 0 0 0 0 0 0 0 0 0 0 0
0 0 0 0 0 0 0 0 0 0 0 0 0 0 0 0 0 0 0 0 0 0 0 0 0 0 0 0 0 0 0 0 0 0 0 0 0 0 0 0 0 0 0
0 0 0 0 0 0 0 0 0 0 0 0 0 0 0 0 0 0 0 0 0 0 0 0 0 0 0 0 0 0 0 0 0 0 0 0 0 0 0 0 0 0 0
0 0 0 0 0 0 0 0 0 0 0 0 0 0 0 0 0 0 0 0 0 0 0 0 0 0 0 0 0 0 0 0 0 0 0 0 0 0 0 0 0 0 0
0 0 0 0 0 0 0 0 0 0 0 0 0 0 0 0 0 0 0 0 0 0 0 0 0 0 0 0 0 0 0 0 0 0 0 0 0 0 0 0 0 0 0
0 0 0 0 0 0 0 0 0 0 0 0 0 0 0 0 0 0 0 0 0 0 0 0 0 0 0 0 0 0 0 0 0 0 0 0 0 0 0 0 0 0 0
0 0 0 0 0 0 0 0 0 0 0 0 0 0 0 0 0 0 0 0 0 0 0 0 0 0 0 0 0 0 0 0 0 0 0 0 0 0 0 0 0 0 0
0 0 0 0 0 0 0 0 0 0 0 0 0 0 0 0 0 0 0 0 0 0 0 0 0 0 0 0 0 0 0 0 0 0 0 0 0 0 0 0 0 0 0
0 0 0 0 0 0 0 0 0 0 0 0 0 0 0 0 0 0 0 0 0 0 0 0 0 0 0 0 0 0 0 0 0 0 0 0 0 0 0 0 0 0 0
0 0 0 0 0 0 0 0 0 0 0 0 0 0 0 0 0 0 0 0 0 0 0 0 0 0 0 0 0 0 0 0 0 0 0 0 0 0 0 0 0 0 0
0 0 0 0 0 0 0 0 0 0 0 0 0 0 0 0 0 0 0 0 0 0 0 0 0 0 0 0 0 0 0 0 0 0 0 0 0 0 0 0 0 0 0
0 0 0 0 0 0 0 0 0 0 0 0 0 0 0 0 0 0 0 0 0 0 0 0 0 0 0 0 0 0 0 0 0 0 0 0 0 0 0 0 0 0 0
0 0 0 0 0 0 0 0 0 0 0 0 0 0 0 0 0 0 0 0 0 0 0 0 0 0 0 0 0 0 0 0 0 0 0 0 0 0 0 0 0 0 0
0 0 0 0 0 0 0 0 0 0 0 0 0 0 0 0 0 0 0 0 0 0 0 0 0 0 0 0 0 0 0 0 0 0 0 0 0 0 0 0 0 0 0
0 0 0 0 0 0 0 0 0 0 0 0 0 0 0 0 0 0 0 0 0 0 0 0 0 0 0 0 0 0 0 0 0 0 0 0 0 0 0 0 0 0 0
0 0 0 0 0 0 0 0 0 0 0 0 0 0 0 0 0 0 0 0 0 0 0 0 0 0 0 0 0 0 0 0 0 0 0 0 0 0 0 0 0 0 0
0 0 0 0 0 0 0 0 0 0 0 0 0 0 0 0 0 0 0 0 0 0 0 0 0 0 0 0 0 0 0 0 0 0 0 0 0 0 0 0 0 0 0
Wind_Speed
1 1 2 2 2 2 2 3 2 2 2 3 3 3 3 3 3 3 4 4 4 4 4 4 5 4 3 3 3 3 3 4 6 5 3 3 3 3 3 3 4 4 5
1 1 2 2 2 2 2 3 2 3 3 3 3 3 4 4 4 4 5 5 5 5 5 5 5 4 4 3 3 4 4 4 5 7 5 3 4 3 4 4 4 4 4
1 1 1 2 2 2 2 2 2 3 3 3 3 4 4 4 4 5 5 5 5 6 5 6 5 4 5 4 4 4 4 3 4 5 5 3 3 2 3 4 4 4 4
1 2 2 2 2 2 2 2 2 3 3 4 4 4 4 4 4 4 4 4 5 5 5 5 5 6 6 5 5 5 4 3 4 4 5 4 3 3 2 3 4 3 4
1 2 2 2 1 2 2 2 3 3 3 3 3 4 4 4 4 4 4 4 5 5 5 5 5 6 7 6 4 4 4 4 4 4 5 4 4 3 3 2 4 4 4
2 2 2 1 1 2 2 3 3 3 3 3 3 4 4 4 5 6 5 4 5 5 5 5 5 6 8 9 8 8 6 6 6 5 5 6 6 4 3 3 3 3 4
2 2 2 2 2 3 3 3 3 3 3 3 4 4 5 5 7 7 6 4 5 5 5 5 4 5 5 5 7 8 9 10 9 7 7 8 6 4 3 4 4 4 5
2 2 2 2 2 2 3 3 4 3 3 4 4 5 5 6 7 7 6 5 5 5 6 6 6 6 5 5 5 6 7 7 8 7 7 7 6 4 4 5 5 5 5
2 3 3 3 3 3 4 4 4 3 4 4 4 4 5 6 7 7 6 4 4 5 5 5 5 5 6 6 5 6 7 7 7 8 9 9 9 7 5 3 3 3 5
4 3 3 3 3 4 4 4 3 3 4 4 4 4 5 6 7 7 6 3 5 5 4 4 6 7 7 7 5 6 7 6 4 4 5 6 6 5 6 4 4 4 3
3 2 2 3 3 4 3 3 3 3 3 4 5 4 5 5 7 8 7 4 4 4 4 4 5 8 9 9 7 6 7 5 3 4 3 3 3 3 3 3 3 4 4
2 2 3 3 3 2 3 3 3 3 3 4 4 5 4 4 6 7 9 8 6 5 5 4 5 7 8 9 7 7 8 5 3 3 3 3 3 3 3 3 4 4 4
2 3 3 3 3 2 2 3 2 2 3 3 3 4 4 4 5 8 8 9 8 5 5 6 7 7 7 6 7 7 4 2 2 3 4 4 3 3 2 2 2 3 3
2 3 2 3 3 2 2 2 3 3 3 3 4 4 5 4 4 3 3 4 6 5 4 5 6 6 5 4 3 3 2 2 3 3 3 3 2 1 2 1 2 2 2
3 3 3 3 3 3 3 3 4 4 4 4 4 4 4 5 6 7 4 3 3 3 2 2 2 2 2 2 2 2 1 1 2 2 2 2 2 2 2 1 1 1 2
3 3 2 2 2 3 3 4 6 6 8 8 7 6 5 7 8 8 7 7 6 4 1 2 2 3 3 3 2 2 2 2 2 2 2 2 2 2 2 2 1 2 3
4 3 3 3 3 3 3 3 4 5 7 8 8 8 8 8 8 8 7 6 4 2 1 2 2 2 3 3 2 3 3 3 2 2 3 3 2 2 2 2 2 2 3
4 4 3 3 3 3 3 3 3 4 5 5 6 8 8 8 8 7 6 4 2 1 1 2 2 2 2 3 3 3 3 2 2 2 2 2 2 2 2 3 2 2 3
3 3 3 3 3 3 3 3 3 4 4 4 4 5 6 6 5 5 4 1 1 2 2 2 2 3 3 3 3 3 3 3 2 2 2 2 2 2 3 3 3 3 3
3 4 3 3 3 3 3 3 4 4 4 4 4 4 3 2 2 3 2 1 2 2 2 2 2 2 2 2 2 2 2 2 2 2 2 2 2 2 3 3 2 2 2
3 3 4 3 3 4 4 4 4 4 4 4 4 4 5 3 3 3 2 2 2 2 2 3 3 3 3 2 2 3 3 3 2 2 2 2 2 2 2 2 2 2 2
3 3 3 4 4 4 4 4 4 4 4 5 4 4 6 3 2 2 2 2 2 2 2 2 2 2 2 2 3 2 2 2 2 2 2 2 2 2 2 2 2 2 2
3 4 4 4 4 4 4 4 4 4 4 4 4 3 3 3 3 3 3 3 2 2 2 2 3 3 3 3 3 3 3 3 3 3 2 2 2 2 2 2 2 2 2
4 4 4 4 4 4 4 5 4 4 4 4 4 4 3 3 3 3 3 3 3 3 2 2 3 4 4 3 3 3 3 3 2 2 3 3 3 2 2 2 3 3 3
4 4 4 4 4 4 4 5 5 4 4 4 4 4 4 3 3 3 3 3 3 3 4 3 3 4 5 5 4 4 5 5 4 3 3 3 3 3 3 3 3 3 3
4 4 4 4 4 4 5 5 5 5 5 4 4 4 4 4 4 4 3 3 3 3 4 4 4 5 5 5 5 6 6 6 5 5 3 3 3 3 3 3 3 3 3
Wind_Direction
200 202 186 187 198 196 205 221 224 225 222 226 228 226 229 230 225 224 233 231 234 245 246 244 251 250 245 241 238 240 243 239 260 277 277 286 278 278 293 287 279 279 283
205 194 196 185 182 201 225 235 230 231 230 230 231 231 232 232 227 224 232 231 231 241 245 244 250 248 248 246 240 242 243 239 248 272 283 284 274 272 282 283 285 283 280
200 194 195 196 199 217 235 250 245 238 239 238 233 236 238 236 232 232 233 235 236 241 242 241 245 238 245 249 246 244 246 250 248 260 275 276 276 276 289 287 284 281 283
202 201 214 227 234 246 247 249 247 239 233 234 238 240 242 241 239 237 238 238 245 250 249 247 245 235 240 243 244 246 246 249 254 261 273 277 275 277 271 277 290 284 289
207 217 235 245 247 261 265 259 257 254 249 243 244 251 248 243 241 241 242 240 246 253 257 254 251 248 247 244 246 245 238 243 249 258 268 276 270 269 263 259 273 291 285
217 234 241 241 248 257 264 267 264 264 264 257 250 251 254 254 255 252 252 247 248 250 257 260 256 251 253 250 250 248 240 238 243 246 257 263 266 259 258 259 269 288 285
230 250 252 243 246 255 262 264 261 257 257 255 255 253 257 261 262 261 260 253 248 249 253 257 259 256 252 253 258 258 251 249 243 241 250 256 262 253 250 260 258 261 265
231 249 254 251 257 266 261 260 264 262 252 252 256 258 262 266 264 261 261 253 251 252 251 251 255 259 254 252 254 260 260 256 251 248 250 257 257 251 234 243 255 268 276
240 250 253 248 255 258 256 260 263 265 265 262 263 260 262 270 266 264 261 259 259 260 258 254 254 258 263 257 252 260 268 269 263 257 259 263 265 261 257 254 252 262 276
248 254 258 251 250 252 258 266 268 262 264 270 270 265 261 266 267 265 260 256 262 266 265 259 256 259 263 253 247 253 263 270 275 278 271 272 267 263 259 243 237 244 264
265 267 267 262 261 262 271 276 276 272 273 273 274 276 267 264 267 265 260 255 256 261 261 262 262 265 265 262 256 252 263 273 261 260 265 269 270 264 260 254 241 234 242
261 259 265 269 269 274 272 281 281 274 272 274 277 282 277 272 269 268 264 262 262 253 259 263 265 267 267 268 265 267 271 270 259 258 262 262 262 262 264 259 252 246 244
251 258 270 278 277 279 268 274 283 275 270 273 272 278 285 286 278 272 267 267 265 259 261 265 270 268 267 267 271 270 261 246 242 248 259 265 266 266 267 272 272 267 274
254 265 269 270 278 277 270 261 261 261 262 265 268 275 285 289 290 290 280 275 272 269 273 271 272 275 278 282 282 274 262 247 241 249 263 272 281 288 279 273 273 282 281
257 264 270 269 271 273 270 259 261 260 257 263 261 262 273 282 287 293 295 285 277 270 280 293 307 306 300 301 299 292 285 283 270 273 273 278 279 280 279 276 265 253 250
251 258 260 266 270 271 279 289 275 276 280 278 278 277 277 284 295 295 294 283 277 270 252 251 262 264 266 272 278 283 270 264 264 265 264 265 268 271 280 280 258 246 258
240 251 256 259 260 264 267 275 292 297 287 284 285 285 285 290 290 292 296 292 285 285 267 265 267 269 272 275 272 270 269 268 260 251 253 258 260 261 263 268 261 260 263
243 245 246 250 255 257 260 264 268 278 291 295 293 292 293 292 293 296 299 302 300 330 270 263 267 271 271 271 272 273 274 273 262 256 256 258 257 257 260 262 257 255 262
244 248 249 254 256 259 263 266 267 268 273 284 297 298 298 298 301 306 311 294 260 264 269 269 267 266 266 266 266 264 262 262 262 259 262 262 257 252 255 259 260 261 254
246 251 252 252 255 258 258 260 263 264 268 273 276 283 294 295 289 296 292 272 261 265 265 266 268 266 264 263 264 266 266 264 262 256 259 259 258 253 255 257 260 263 260
251 251 246 249 249 252 254 256 259 258 259 266 272 276 283 275 266 269 272 263 253 257 262 265 266 265 262 259 256 254 253 259 254 252 254 254 250 253 256 256 258 258 267
245 246 242 244 249 252 253 254 255 256 258 264 277 283 281 283 274 274 273 270 264 256 254 257 264 263 259 256 257 260 258 255 253 253 252 249 242 244 246 252 256 258 263
243 247 250 248 247 251 254 252 251 251 255 258 264 269 268 263 266 266 270 272 269 267 263 258 263 270 269 260 250 242 243 246 243 239 246 250 244 235 230 242 248 250 255
241 242 247 250 247 246 249 254 254 252 252 256 259 260 262 262 260 264 264 264 265 264 261 257 259 264 268 270 266 261 258 257 247 238 235 238 239 238 234 239 241 243 247
243 243 244 245 243 245 249 253 254 250 250 253 255 258 261 258 259 263 260 258 259 262 265 263 264 264 264 264 264 262 263 264 256 234 226 227 233 232 232 240 243 242 243
249 248 248 247 243 244 245 250 253 250 250 253 253 254 254 252 255 259 259 259 262 264 266 263 263 263 265 263 261 262 260 258 249 234 222 218 224 231 225 233 239 241 241